This demonstration page uses our WeatherBlox Daily Observations layout. Learn more.

39.29038, -76.61219

Hourly Observations for May 3, 2019

Temp ( °F °C ) Dew Point ( °F °C ) Humidity (%) Winds ( mph kmh ) Pressure ( in mb ) Visibility ( mi km ) Precip ( " mm )
12:54 am 00:54 undefined 67 19.4 63 17.2 87 87 undefined N/A 30.09 1019 N/A 0 0
1:54 am 01:54 undefined 67 19.4 63 17.2 87 87 undefined N/A 30.07 1018 N/A 0 0
2:54 am 02:54 undefined 66 18.9 63 17.2 90 90 undefined N/A 30.05 1018 N/A 0 0
3:54 am 03:54 undefined 66 18.9 63 17.2 90 90 undefined N/A 30.04 1017 N/A 0 0
4:54 am 04:54 undefined 64 17.8 62 16.7 93 93 undefined N/A 30.04 1017 N/A 0 0
5:54 am 05:54 undefined 61 16.1 60 15.6 97 97 undefined N/A 30.04 1017 N/A 0 0
6:54 am 06:54 undefined 60 15.6 59 15 96 96 undefined N/A 30.06 1018 N/A 0 0
7:54 am 07:54 undefined 58 14.4 58 14.4 100 100 undefined N/A 30.06 1018 N/A 0 0
8:54 am 08:54 undefined 58 14.4 57 13.9 97 97 undefined N/A 30.06 1018 N/A 0 0
9:54 am 09:54 undefined 58 14.4 56 13.3 93 93 undefined N/A 30.08 1019 N/A 0 0
10:54 am 10:54 undefined 58 14.4 56 13.3 93 93 undefined N/A 30.08 1019 N/A 0 0
11:54 am 11:54 undefined 59 15 56 13.3 90 90 undefined N/A 30.07 1018 N/A 0 0
12:54 pm 12:54 undefined 61 16.1 57 13.9 87 87 undefined N/A 30.06 1018 N/A 0 0
1:54 pm 13:54 undefined 64 17.8 57 13.9 78 78 undefined N/A 30.04 1017 N/A 0 0
2:54 pm 14:54 undefined 67 19.4 59 15 76 76 undefined N/A 30 1016 N/A 0 0
3:54 pm 15:54 undefined 70 21.1 60 15.6 71 71 undefined N/A 29.97 1015 N/A 0 0
4:54 pm 16:54 undefined 72 22.2 61 16.1 68 68 undefined N/A 29.94 1014 N/A 0 0
5:54 pm 17:54 undefined 70 21.1 60 15.6 71 71 undefined N/A 29.92 1013 N/A 0 0
6:54 pm 18:54 undefined 69 20.6 60 15.6 73 73 undefined N/A 29.93 1014 N/A 0 0
7:54 pm 19:54 undefined 68 20 60 15.6 76 76 undefined N/A 29.92 1013 N/A 0 0
8:54 pm 20:54 undefined 67 19.4 60 15.6 79 79 undefined N/A 29.93 1013 N/A 0 0
9:54 pm 21:54 undefined 67 19.4 60 15.6 79 79 undefined N/A 29.96 1015 N/A 0 0
10:54 pm 22:54 undefined 67 19.4 61 16.1 81 81 undefined N/A 29.98 1015 N/A 0.01 0.254
11:54 pm 23:54 undefined 65 18.3 62 16.7 90 90 undefined N/A 29.94 1014 N/A 0.09 2.286

Powered by AerisWeather